Stations météo

réclame
Mon MeteoGroup
Tännäs, Suède (2308): Température de l'air & dewpoint: 18.05.2019 05:00:00 - 24.05.2019 05:00:00 (CEST)Tännäs, Suède (2308): Vitesse du vent & gusts: 18.05.2019 05:00:00 - 24.05.2019 05:00:00 (CEST)Tännäs, Suède (2308): Direction du vent: 18.05.2019 05:00:00 - 24.05.2019 05:00:00 (CEST)Tännäs, Suède (2308): reduced air pressure: 18.05.2019 05:00:00 - 24.05.2019 05:00:00 (CEST)Tännäs, Suède (2308): visibility: 18.05.2019 05:00:00 - 24.05.2019 05:00:00 (CEST)Tännäs, Suède (2308): Quantités de précipitations: 18.05.2019 05:00:00 - 24.05.2019 05:00:00 (CEST)
Date & Time tt [°C] td [°C] ff [km/h] ff [knt] fx [km/h] fx [knt] dd ppp [hPa] vv [km] rr [mm]
24.05.2019 05:00:00 6,1 1,9 3 2 10 6 SSE 1007,3 50 0,0
24.05.2019 04:00:00 6,2 1,5 2 1 - - SE 1007,5 50 0,0
24.05.2019 03:00:00 5,9 1,6 3 2 14 8 SE 1007,9 50 0,0
24.05.2019 02:00:00 6,0 1,3 4 2 - - SSE 1008,1 50 0,0
24.05.2019 01:00:00 6,3 1,4 5 3 15 8 S 1008,6 50 0,0
24.05.2019 00:00:00 6,6 1,5 5 3 12 7 S 1008,7 50 0,0
23.05.2019 23:00:00 7,4 1,0 4 2 13 7 S 1008,7 50 0,0
23.05.2019 22:00:00 8,7 1,1 4 2 19 10 SW 1008,2 50 0,0
23.05.2019 21:00:00 9,6 0,0 4 2 - - SW 1007,7 50 0,0
23.05.2019 20:00:00 10,9 0,6 9 5 31 17 SW 1007,2 50 0,0
23.05.2019 19:00:00 14,0 0,9 9 5 26 14 SSW 1005,6 50 0,0
23.05.2019 18:00:00 13,5 0,5 9 5 - - SSW 1005,7 50 0,0
23.05.2019 17:00:00 14,1 0,3 8 5 30 16 SSW 1005,6 50 0,0
23.05.2019 16:00:00 16,8 -0,4 9 5 26 14 S 1005,1 40 0,0
23.05.2019 15:00:00 16,9 2,1 8 5 - - S 1005,4 35 0,0
23.05.2019 14:00:00 15,6 7,6 5 3 31 17 ESE 1006,0 44 0,0
23.05.2019 13:00:00 12,2 7,5 8 5 - - E 1007,4 48 0,0
23.05.2019 12:00:00 11,3 9,0 9 5 24 13 E 1007,9 47 0,0
23.05.2019 11:00:00 9,4 7,5 11 6 24 13 E 1008,5 50 0,0
23.05.2019 10:00:00 9,3 7,6 10 6 20 11 E 1008,6 25 0,0
23.05.2019 09:00:00 9,4 7,3 8 5 - - ESE 1008,6 10 0,2
23.05.2019 08:00:00 8,8 6,8 8 4 - - ESE 1008,9 8 1,0
23.05.2019 07:00:00 8,8 6,9 9 5 21 11 E 1009,0 6 0,4
23.05.2019 06:00:00 9,0 7,1 9 5 - - E 1009,1 6 0,3
23.05.2019 05:00:00 9,1 7,2 10 5 23 12 E 1009,5 11 1,0
23.05.2019 04:00:00 9,2 7,0 9 5 - - E 1009,7 6 1,5
23.05.2019 03:00:00 10,1 7,7 9 5 23 12 ESE 1009,7 8 0,7
23.05.2019 02:00:00 11,6 8,5 6 3 15 8 E 1009,2 22 0,1
23.05.2019 01:00:00 12,0 9,0 2 1 - - W 1009,3 17 1,4
23.05.2019 00:00:00 14,0 8,2 6 4 19 10 ESE 1008,7 50 0,0
22.05.2019 23:00:00 14,4 8,8 8 4 17 9 ESE 1008,9 48 0,0
22.05.2019 22:00:00 14,6 9,0 7 4 16 8 E 1009,0 50 0,0
22.05.2019 21:00:00 14,9 8,8 5 3 16 8 ESE 1009,1 44 0,0
22.05.2019 20:00:00 15,4 8,4 4 2 18 10 S 1009,0 50 0,0
22.05.2019 19:00:00 15,8 8,5 5 3 19 10 S 1009,1 50 0,0
22.05.2019 18:00:00 16,5 8,2 7 4 - - S 1009,2 50 0,0
22.05.2019 17:00:00 17,4 8,0 6 4 24 13 SSE 1009,1 41 0,0
22.05.2019 16:00:00 17,5 8,1 5 3 - - SE 1009,4 49 0,0
22.05.2019 15:00:00 16,0 8,7 5 3 18 10 ESE 1010,4 50 0,0
22.05.2019 14:00:00 15,8 9,0 5 3 - - SSE 1010,8 45 0,1
22.05.2019 13:00:00 15,2 9,1 5 3 18 10 S 1011,2 24 0,0
22.05.2019 12:00:00 15,1 8,6 5 3 14 7 SE 1011,3 43 0,0
22.05.2019 11:00:00 15,5 9,2 5 3 - - SSE 1011,2 38 0,0
22.05.2019 10:00:00 13,7 8,9 6 3 14 8 ESE 1012,0 47 0,0
22.05.2019 09:00:00 12,5 8,8 6 3 - - E 1012,4 30 0,0
22.05.2019 08:00:00 12,0 8,5 6 3 15 8 ESE 1012,7 27 0,0
22.05.2019 07:00:00 11,8 8,1 3 2 - - ESE 1012,9 29 0,0
22.05.2019 06:00:00 11,2 6,9 2 1 16 9 SE 1013,1 32 0,0
22.05.2019 05:00:00 12,2 7,7 5 3 - - ESE 1012,8 49 0,0
22.05.2019 04:00:00 12,4 7,7 5 3 15 8 ESE 1012,9 46 0,0
22.05.2019 03:00:00 11,7 7,8 0 0 - - N 1013,2 50 0,0
22.05.2019 02:00:00 11,4 7,5 0 0 5 3 N 1013,5 50 0,0
22.05.2019 01:00:00 12,4 7,9 2 1 4 2 N 1013,4 50 0,0
22.05.2019 00:00:00 13,2 8,3 0 0 - - N 1013,0 50 0,0
21.05.2019 23:00:00 14,0 8,2 0 0 10 5 N 1012,7 50 0,0
21.05.2019 22:00:00 15,5 7,8 3 2 - - E 1012,3 50 0,0
21.05.2019 21:00:00 16,5 7,7 4 2 11 6 E 1011,6 50 0,0
21.05.2019 20:00:00 18,0 9,1 3 2 13 7 E 1010,9 50 0,0
21.05.2019 19:00:00 18,9 6,0 4 2 - - E 1010,6 50 0,0
21.05.2019 18:00:00 19,5 8,2 5 3 14 8 ESE 1010,5 41 0,0
21.05.2019 17:00:00 16,5 10,1 0 0 9 5 N 1011,7 50 0,0
21.05.2019 16:00:00 16,0 11,8 2 1 - - N 1012,2 42 0,1
21.05.2019 15:00:00 13,9 10,3 2 1 21 11 N 1013,3 8 1,3
21.05.2019 14:00:00 19,5 5,9 5 3 - - ESE 1011,2 50 0,0
21.05.2019 13:00:00 18,7 5,9 7 4 21 11 SE 1011,6 50 0,0
21.05.2019 12:00:00 19,1 6,6 8 4 20 11 ESE 1011,7 39 0,0
21.05.2019 11:00:00 18,3 6,5 5 3 18 10 ESE 1012,1 50 0,0
21.05.2019 10:00:00 17,4 6,9 5 3 12 7 SE 1012,4 50 0,0
21.05.2019 09:00:00 14,0 5,9 2 1 6 3 SW 1013,5 50 0,0
21.05.2019 08:00:00 12,4 6,2 3 1 5 3 S 1013,9 50 0,0
21.05.2019 07:00:00 11,2 5,7 0 0 - - N 1014,4 50 0,0
21.05.2019 06:00:00 10,1 5,9 0 0 - - N 1014,6 50 0,0
21.05.2019 05:00:00 8,8 5,0 0 0 5 3 N 1014,8 50 0,0
21.05.2019 04:00:00 9,5 5,3 0 0 4 2 N 1014,9 50 0,0
21.05.2019 03:00:00 9,5 5,1 3 1 - - NNW 1015,0 50 0,0
21.05.2019 02:00:00 9,0 4,8 0 0 6 4 N 1015,1 50 0,0
21.05.2019 01:00:00 10,3 5,1 0 0 8 4 N 1014,7 50 0,0
21.05.2019 00:00:00 11,2 5,7 0 0 - - N 1014,3 50 0,0
20.05.2019 23:00:00 11,5 6,0 3 1 10 5 E 1014,3 50 0,0
20.05.2019 22:00:00 11,9 5,3 2 1 - - WNW 1013,8 50 0,0
20.05.2019 21:00:00 13,3 5,7 0 0 8 4 N 1013,0 50 0,0
20.05.2019 20:00:00 15,5 6,2 0 0 9 5 N 1012,2 50 0,0
20.05.2019 19:00:00 15,4 5,3 0 0 - - N 1012,1 50 0,0
20.05.2019 18:00:00 16,6 4,6 2 1 11 6 E 1011,9 50 0,0
20.05.2019 17:00:00 17,6 3,5 4 2 - - SE 1011,7 50 0,0
20.05.2019 16:00:00 19,0 4,4 5 3 14 7 SSE 1011,5 50 0,0
20.05.2019 15:00:00 16,6 4,3 3 2 - - WSW 1012,4 50 0,0
20.05.2019 14:00:00 17,4 5,3 4 2 19 10 ESE 1012,4 50 0,0
20.05.2019 13:00:00 16,0 5,9 4 2 14 7 SE 1012,9 46 0,0
20.05.2019 12:00:00 15,4 5,6 3 2 - - ESE 1013,2 50 0,0
20.05.2019 11:00:00 15,9 6,3 4 2 14 8 WNW 1013,1 50 0,0
20.05.2019 10:00:00 13,6 7,8 5 3 10 5 SSE 1014,0 50 0,0
20.05.2019 09:00:00 10,8 6,5 3 2 8 4 S 1014,9 50 0,0
20.05.2019 08:00:00 8,2 5,5 2 1 8 4 SSW 1015,7 13 0,0
20.05.2019 07:00:00 5,5 3,0 0 0 9 5 N 1016,5 10 0,0
20.05.2019 06:00:00 5,3 3,3 5 3 9 5 NNW 1016,6 15 0,0
20.05.2019 05:00:00 5,2 2,2 0 0 - - N 1016,7 - 0,0
20.05.2019 04:00:00 5,8 4,0 5 3 11 6 NNW 1016,4 17 0,0
20.05.2019 03:00:00 5,5 3,7 2 1 - - NNW 1016,2 15 0,0
20.05.2019 02:00:00 6,4 3,7 3 2 10 5 SE 1016,1 27 0,0
20.05.2019 01:00:00 6,5 4,3 0 0 - - N 1015,9 15 0,0
20.05.2019 00:00:00 6,7 4,4 3 1 8 4 ENE 1015,7 14 0,0
19.05.2019 23:00:00 7,5 4,8 2 1 6 4 SSE 1015,3 27 0,0
19.05.2019 22:00:00 7,7 5,3 0 0 7 4 N 1015,0 13 0,0
19.05.2019 21:00:00 8,2 4,8 3 2 - - S 1014,5 19 0,0
19.05.2019 20:00:00 8,3 5,4 3 1 11 6 S 1014,4 20 0,0
19.05.2019 19:00:00 8,6 6,4 4 2 9 5 SSW 1014,3 0,6 0,0
19.05.2019 18:00:00 8,7 5,4 4 2 10 5 S 1014,5 31 0,0
19.05.2019 17:00:00 8,6 5,7 4 2 10 6 SE 1014,6 22 0,0
19.05.2019 16:00:00 - - - - 10 6 - - - -
19.05.2019 15:00:00 8,0 4,9 3 1 - - E 1014,9 11 1,3
19.05.2019 14:00:00 7,3 4,4 4 2 14 8 E 1015,2 10 0,0
19.05.2019 13:00:00 7,5 4,5 3 1 - - E 1015,4 42 0,0
19.05.2019 12:00:00 8,4 4,4 2 1 10 6 E 1015,2 50 0,0
19.05.2019 11:00:00 8,0 4,8 0 0 10 5 N 1015,7 40 0,2
19.05.2019 10:00:00 7,3 4,3 0 0 6 4 N 1016,4 3,4 0,4
19.05.2019 09:00:00 6,6 3,7 2 1 - - E 1016,9 21 0,3
19.05.2019 08:00:00 6,4 3,7 4 2 8 4 E 1017,5 12 0,7
19.05.2019 07:00:00 6,7 3,1 0 0 - - N 1017,3 10 0,6
19.05.2019 06:00:00 6,5 3,5 - - - - - 1017,7 - -
19.05.2019 05:00:00 6,3 3,6 - - - - - 1018,0 - -
19.05.2019 04:00:00 7,9 2,4 - - - - - 1017,6 - 0,0
19.05.2019 03:00:00 8,0 3,1 - - - - - 1017,5 - 0,0
19.05.2019 02:00:00 7,4 3,3 - - - - - 1018,1 - 0,0
19.05.2019 01:00:00 7,5 4,5 - - - - - 1018,4 - 0,0
19.05.2019 00:00:00 7,9 5,2 0 0 12 7 N 1018,8 50 0,6
18.05.2019 23:00:00 11,4 0,5 4 2 13 7 E 1017,7 50 0,0
18.05.2019 22:00:00 12,2 0,6 5 3 16 9 E 1017,4 50 0,1
18.05.2019 21:00:00 13,4 0,4 8 5 19 10 ESE 1016,9 50 0,0
18.05.2019 20:00:00 14,4 -0,5 6 3 - - ESE 1016,6 50 0,0
18.05.2019 19:00:00 15,3 -0,5 7 4 21 12 ESE 1016,6 50 0,0
18.05.2019 18:00:00 14,7 0,5 6 3 21 12 ESE 1017,0 50 0,0
18.05.2019 17:00:00 17,1 -0,2 8 4 - - SE 1016,7 50 0,0
18.05.2019 16:00:00 15,1 -0,7 9 5 24 13 SE 1017,8 50 0,0
18.05.2019 15:00:00 16,5 -1,1 8 4 - - SE 1017,5 50 0,0
18.05.2019 14:00:00 15,5 -2,0 9 5 31 17 SE 1018,1 50 0,0
18.05.2019 13:00:00 14,7 -2,3 7 4 24 13 SE 1018,8 50 0,0
18.05.2019 12:00:00 13,2 -1,6 7 4 - - SE 1019,8 50 0,0
18.05.2019 11:00:00 12,4 -1,9 8 4 21 11 SE 1020,4 50 0,0
18.05.2019 10:00:00 12,2 -2,4 9 5 20 11 SE 1020,6 50 0,0
18.05.2019 09:00:00 11,8 -0,4 6 4 16 9 ESE 1020,7 50 0,0
18.05.2019 08:00:00 9,6 1,0 6 4 13 7 ESE 1021,9 50 0,0
18.05.2019 07:00:00 7,1 0,7 6 3 - - ESE 1022,8 50 0,0
18.05.2019 06:00:00 6,2 0,5 5 3 16 8 E 1023,3 50 0,0
18.05.2019 05:00:00 5,2 0,0 3 2 - - ESE 1024,0 50 0,0

tt = Température de l'air
td = dewpoint
ff = Vitesse du vent
fx = gusts
dd = Direction du vent
ppp = reduced air pressure
vv = visibility
rr = Quantités de précipitations

stations d'obs. à proximité